Regional Weather Roundup
Issued by NWS Goodland, KS

Home | Current Version | Previous Version | Text Only | Print | Product List | Glossary Off
Versions: 1 2 3 4 5 6 7 8 9 10 11 12 13 14 15 16 17 18 19 20 21 22 23 24 25 26 27 28 29 30 31 32 33 34 35 36 37 38 39 40 41 42 43 44 45 46 47 48 49 50

000
ASUS43 KGLD 050908
RWRGLD

GOODLAND FORECAST AREA HOURLY WEATHER ROUNDUP
NATIONAL WEATHER SERVICE GOODLAND KS
200 AM MST THU MAR 05 2015

...OFFICIAL OBSERVATIONS...

CITY           SKY/WX    TMP DP  RH WIND       PRES   REMARKS
GOODLAND KS    CLEAR     16   9  74 W13       30.29S WCI   2
HILL CITY KS   CLEAR     13   4  67 E7        30.39S
IMPERIAL NEB     N/A      8   1  73 CALM      30.29F
MCCOOK NEB     CLEAR     12   2  64 E5        30.35S
AKRON CO       CLEAR     10   6  84 SW8       30.22S
BURLINGTON CO  CLEAR     15   8  73 W13       30.27S WCI   1
LIMON CO       CLEAR      1  -4  79 NW8       30.22S
$$

...UNOFFICIAL OBSERVATIONS...

CITY           SKY/WX    TMP DP  RH WIND       PRES   REMARKS
COLBY KS       CLEAR     10  10 100 W6        30.32S
GOVE KS          N/A     10  32 100 MISG        N/A
NORTON KS      CLEAR      9   0  66 CALM      30.37S
SHARON SPRINGS   N/A     16  12  82 CALM        N/A
TRIBUNE KS     CLEAR     16  14  93 SW10      30.33F WCI   3
KIT CARSON CO    N/A     12   7  81 MISG        N/A
YUMA CO          N/A     11   5  77 W6          N/A
$$



USA.gov is the U.S. government's official web portal to all federal, state and local government web resources and services.